Location: Goodsell Observatory
(44.4617°N, 93.1522°W)
Time: 23:51:18
(UTC-05:00)

Daily predictions for brighter satellites

Satellite Brightness Start Highest point End
(mag) Time Altitude Azimuth Time Altitude Azimuth Time Altitude Azimuth
Cosmos 1937 Rocket 3.5 21:12:59 10° S 21:18:03 64° ESE 21:23:10 10° NNE
Cosmos 2298 Rocket 4.0 21:16:17 10° SSW 21:21:33 75° ESE 21:26:52 10° NNE
Cosmos 2150 Rocket 4.1 21:16:21 10° S 21:21:41 67° ESE 21:26:58 10° NNE
ATLAS 3B R/B 3.9 21:14:34 10° WSW 21:21:46 53° NW 21:28:42 10° NNE
USA 186 3.9 21:26:25 10° SSW 21:28:33 22° W 21:30:49 10° NW
Spot 1 4.4 21:25:41 10° SSE 21:30:26 82° ENE 21:35:28 10° NNW
Cosmos 1943 Rocket 3.4 21:27:06 10° SSE 21:31:10 21° E 21:35:15 10° NE
Tsikada Rocket 4.2 21:25:57 10° S 21:32:11 81° W 21:38:24 10° N
Lacrosse 5 rocket 2.3 21:30:19 10° S 21:32:54 19° SE 21:35:32 10° ENE
Cosmos 1939 Rocket 3.5 21:30:05 10° S 21:34:10 60° W 21:38:17 10° NNW
NOAA 11 4.4 21:29:11 10° SSE 21:34:30 57° ENE 21:39:54 10° N
Cosmos 1869 Rocket 4.1 21:32:29 10° SSE 21:36:30 39° E 21:40:33 10° NNE
Cosmos 1346 Rocket 2.8 21:33:21 10° N 21:37:20 89° WSW 21:41:19 10° S
Cosmos 1340 4.2 21:37:44 10° NNE 21:40:40 21° ENE 21:43:13 12° ESE
Cosmos 2221 Rocket 4.0 21:37:01 10° N 21:41:19 46° ENE 21:45:32 10° SSE
CZ-4B DEB 2.6 21:38:24 10° S 21:41:20 81° W 21:44:16 10° NNW
Cosmos 2369 Rocket 2.4 21:39:25 10° S 21:44:48 48° ESE 21:50:16 10° NE
Cosmos 1606 3.4 21:44:36 10° N 21:48:08 36° ENE 21:50:59 14° SE
ERS-1 Rocket 3.0 21:43:51 10° SSE 21:48:52 75° ENE 21:53:55 10° N
Cosmos 1634 Rocket 4.0 21:45:48 10° N 21:52:07 86° E 21:58:27 10° S
Shenzhou-11 Module 3.3 21:52:03 10° W 21:54:46 28° SSW 21:56:30 17° SSE
Cosmos 2084 3.2 21:53:38 10° NW 21:57:28 79° NE 22:00:25 17° SE
NOSS 3-2 (A) 4.0 21:53:52 10° SW 21:59:52 64° NW 22:06:33 10° NE
Helios 1B rocket 3.2 21:57:18 10° N 22:01:21 56° WNW 22:05:22 10° SSW
BREEZE M DEB (TANK) 4.3 21:49:12 10° SW 22:02:49 55° SSE 22:06:51 10° ENE
Meteor 2-6 Rocket 4.4 22:00:26 10° N 22:06:20 66° ENE 22:11:25 14° SSE
SPOT 1/Viking Rocket 4.0 22:02:51 16° SE 22:06:48 48° ENE 22:11:48 10° N
GEOS 3 Rocket 4.4 22:02:34 13° ESE 22:06:50 44° NE 22:11:48 10° NNW
USA 215 3.4 22:04:05 15° SE 22:09:40 72° SW 22:16:16 10° NW
YAOGAN 11 4.3 22:06:27 16° SSE 22:09:57 61° ENE 22:14:25 10° N
Cosmos 468 4.5 22:06:15 10° NNW 22:11:34 84° ENE 22:15:39 17° SSE
Cosmos 1782 2.7 22:07:54 10° N 22:11:56 81° E 22:14:58 17° SSE
Lacrosse 4 Rocket 2.4 22:08:39 10° NNW 22:12:54 39° NE 22:15:43 19° ESE
ATLAS 5 CENTAUR R/B 2.7 22:07:14 10° NNW 22:13:01 57° NE 22:17:52 18° ESE
Cosmos 1269 Rocket 4.1 22:13:49 10° NNW 22:19:06 64° ENE 22:22:37 21° SE
NOSS 3-2 (C) 4.1 22:13:16 10° SW 22:19:16 63° NW 22:25:58 10° NNE
H-2A R/B 3.8 22:20:16 14° E 22:22:03 18° ENE 22:24:55 10° NNE
Milstar 3 4.2 22:15:03 10° SW 22:22:30 22° S 22:25:14 19° SSE
MetOp-B 4.4 22:17:32 12° S 22:22:32 70° WSW 22:27:54 10° NNW
Cosmos 2279 Rocket 4.0 22:22:04 10° N 22:28:21 85° W 22:33:42 15° S
Cosmos 372 Rocket 3.9 22:23:23 10° S 22:28:26 62° ESE 22:33:30 10° NNE
GPS 2-04 Rocket1 4.0 22:25:57 10° SW 22:28:27 20° S 22:28:27 20° S
ARGOS 3.3 22:25:05 15° S 22:29:37 73° WSW 22:35:01 10° NNW
Cosmos 1125 Rocket 3.4 22:24:27 10° SSW 22:29:41 76° ESE 22:34:56 10° NNE
Aureole 3 3.5 22:26:53 10° SSW 22:29:55 48° W 22:32:48 10° N
Cosmos 1862 3.4 22:29:17 25° SSE 22:31:22 54° E 22:35:16 10° NNE
Landsat 7 4.1 22:29:43 24° SE 22:32:23 55° ENE 22:37:03 10° N
Cosmos 1656 Rocket 4.5 22:31:51 24° SE 22:33:49 30° ESE 22:38:32 10° NE
ISS -4.0 22:31:37 10° SW 22:34:52 78° SSE 22:38:07 10° ENE
CENTAUR R/B 2.4 22:34:31 10° SSW 22:40:31 74° ESE 22:47:25 10° NE
Cosmos 1825 2.6 22:38:00 13° SSW 22:41:16 61° W 22:45:02 10° N
Cosmos 1408 3.4 22:40:28 12° SSW 22:43:51 51° WNW 22:47:31 10° N
Cosmos 1437 4.0 22:41:29 10° NNE 22:44:15 26° ENE 22:44:29 26° E
SL-08 RB Rocket 4.1 22:41:06 19° S 22:44:19 61° W 22:48:58 10° NNW
Okean 3 4.5 22:42:26 10° N 22:46:11 31° ENE 22:47:16 27° ESE
Terra 2.1 22:45:22 30° SE 22:47:31 54° ENE 22:52:10 10° N
COSMOS 2455 3.5 22:41:57 10° SW 22:47:52 58° NW 22:53:50 10° NNE
H-2A R/B 2.2 22:44:20 21° S 22:48:00 75° WSW 22:53:22 10° NNW
Cosmos 2227 Rocket 4.4 22:46:47 10° N 22:50:09 16° NE 22:53:30 10° E
IGS 5A 3.7 22:51:10 36° SE 22:52:34 55° ENE 22:56:39 10° N
Tiangong 2 3.2 22:50:29 10° WSW 22:52:13 17° SW 22:52:13 17° SW
SPOT 5 3.7 22:49:16 17° S 22:53:16 52° W 22:58:29 10° NNW
Cosmos 2219 4.1 22:48:33 10° NNW 22:53:54 37° NE 22:56:51 23° ESE
Cosmos 1812 4.2 22:55:20 10° NNE 22:58:29 23° ENE 22:58:56 23° E
DNEPR-1 R/B 3.9 22:58:26 10° SW 23:03:35 74° NW 23:08:02 10° NNE
Cosmos 2344 3.6 22:56:51 10° SSW 23:04:26 75° ESE 23:13:01 10° NE
Sich 1 Rocket 4.1 23:05:59 38° ESE 23:06:43 41° E 23:10:53 10° NNE
Cosmos 494 Rocket 4.1 23:01:36 10° NNW 23:06:48 62° ENE 23:08:45 37° SE
Cosmos 1733 Rocket 3.1 23:06:59 29° SSW 23:09:09 73° W 23:13:29 10° N
Lacrosse 5 rocket 1.8 23:08:15 10° WSW 23:11:46 51° NW 23:15:24 10° NE
Cosmos 1943 Rocket 2.7 23:08:55 10° SW 23:14:26 59° WNW 23:19:57 10° NNE
CZ-4 R/B 4.1 23:10:04 10° NNE 23:14:32 44° E 23:15:12 41° SE
Cosmos 1346 3.9 23:12:24 10° N 23:14:20 39° NNE 23:14:20 39° NNE
Spot 4 4.2 23:14:20 38° ESE 23:15:47 52° ENE 23:20:29 10° N
Cosmos 1340 4.4 23:13:06 10° NNW 23:16:21 27° W 23:18:04 19° SW
Cosmos 405 Rocket 3.8 23:14:32 10° N 23:17:50 29° ENE 23:17:52 29° ENE
BREEZE-M DEB 4.4 23:13:22 10° W 23:23:54 53° NNW 23:27:10 10° ENE
CZ-4B R/B 3.7 23:21:33 10° NNE 23:26:21 46° E 23:27:00 43° ESE
Cosmos 2026 Rocket 4.1 23:25:32 38° SSE 23:27:42 57° E 23:33:47 10° NNE
SME Rocket 4.5 23:24:45 35° SSE 23:27:48 85° ENE 23:37:15 10° NNW
Cosmos 2369 Rocket 4.1 23:24:09 10° WSW 23:29:03 29° NW 23:34:02 10° N
Cosmos 1975 Rocket 3.5 23:25:45 10° N 23:30:04 47° ENE 23:30:38 44° ESE
Meteor 2-20 Rocket 4.4 23:31:35 34° S 23:34:27 87° E 23:40:37 10° N
CARTOSAT-1 4.4 23:39:25 34° SW 23:40:33 41° W 23:44:40 10° NNW
S3M 4.4 23:38:35 10° N 23:44:32 49° ENE 23:46:18 38° ESE
GEOS 3 Rocket 4.4 23:43:40 33° SSW 23:44:54 38° WSW 23:49:45 10° NW
Cosmos 2297 Rocket 3.6 23:40:49 10° N 23:45:44 29° NE 23:48:16 21° E
Cosmos 2251 Rocket 3.5 23:41:03 10° NNW 23:46:17 75° WSW 23:47:31 52° S
Cosmos 1378 Rocket 3.8 23:42:00 10° NNW 23:46:22 64° W 23:47:08 54° SW
Cosmos 1441 Rocket 4.0 23:42:42 10° N 23:46:10 40° ENE 23:46:10 40° ENE
Cosmos 1092 Rocket 4.4 23:47:18 25° SSW 23:50:50 59° WNW 23:56:55 10° N
Lacrosse 4 Rocket 3.0 23:47:45 10° NW 23:51:26 25° WSW 23:52:03 24° WSW
